SCP
0 0 0 0 0 0 0 0 0 0 0 0 0 0 0 0 0 0 0 0 0 0
0 0 0 0 0 0 0 0 0 0 0 0 0 0 0 0 0 0 0 0 0 0
0 0 0 0 0 0 0 0 0 0 0 0 0 0 0 0 0 0 0 0 0 0
0 0 0 0 0 0 0 0 0 0 0 0 0 0 0 0 0 0 0 0 0 0
0 0 0 0 0 0 0 0 0 0 0 0 0 0 0 0 0 0 0 0 0 0
0 0 0 0 0 0 0 0 0 0 0 0 0 0 0 0 0 0 0 0 0 0
0 0 0 0 0 0 0 0 0 0 0 0 0 0 0 0 0 0 0 0 0 0
0 0 0 -0 -0 -0 0 0 0 0 0 0 0 0 0 0 0 0 0 0 0 0
0 0 0 0 -0 -0 -0 0 0 0 0 0 0 0 0 0 0 0 0 0 0 0
0 0 0 0 0 0 0 0 0 0 0 0 0 0 0 0 0 0 0 0 0 0
0 0 0 0 0 0 0 0 0 0 0 0 0 0 0 0 0 0 0 0 0 0
0 0 0 0 0 0 0 0 0 0 0 0 0 0 0 0 0 0 0 0 0 0
0 0 0 0 0 0 0 0 0 0 0 0 0 0 0 0 0 0 0 0 0 0
-0 -0 0 0 0 0 0 0 0 0 0 0 0 0 0 0 0 0 0 0 0 0
Wind_Speed_500mb
58 61 71 83 86 84 85 84 90 100 104 102 100 99 95 92 88 86 84 80 75 69
48 57 62 66 74 82 82 82 81 84 96 100 101 100 99 99 97 93 89 85 80 77
41 46 55 62 67 72 77 82 82 80 83 93 99 101 103 104 102 99 96 91 88 86
38 41 45 55 61 68 73 80 83 83 87 89 94 101 106 110 108 107 104 98 95 93
47 44 44 48 52 59 68 74 84 87 91 95 96 99 104 113 115 114 113 106 101 100
53 55 52 49 50 52 55 66 75 86 91 98 101 102 105 111 120 120 118 114 107 106
61 61 64 62 57 58 56 57 68 82 89 95 100 104 106 108 118 124 126 119 112 112
61 62 62 65 66 60 60 61 61 70 83 97 99 102 109 110 114 124 128 124 120 118
64 63 65 68 69 67 67 64 62 70 77 90 102 101 105 108 109 117 121 130 127 120
74 69 66 66 67 67 67 70 67 69 71 85 94 96 102 106 111 114 115 123 129 124
83 84 78 75 74 68 67 67 71 64 66 72 83 84 91 98 105 107 111 117 123 124
82 87 93 90 86 80 73 66 66 72 66 66 73 78 80 85 106 100 106 116 121 124
89 89 93 95 97 91 82 77 68 68 75 68 66 69 75 79 86 101 107 116 116 124
95 100 100 100 101 101 90 83 80 73 67 77 66 64 65 74 87 99 109 113 112 115
Wind_Direction_500mb
284 276 270 268 263 257 251 245 240 237 235 235 235 233 230 231 232 232 232 232 232 234
305 292 281 274 269 266 261 253 248 243 238 238 237 235 232 231 230 231 232 233 234 236
309 300 292 283 277 268 264 258 253 249 245 241 239 237 235 233 232 231 230 231 233 235
315 302 293 289 287 280 270 263 258 253 248 244 240 237 237 237 235 233 231 230 232 234
333 314 302 296 290 282 277 271 263 257 252 248 243 240 237 237 237 234 232 231 231 232
341 336 324 303 293 288 285 278 269 261 254 252 248 244 240 238 238 237 235 234 232 233
342 339 337 329 311 296 287 279 276 269 263 258 253 249 246 242 240 239 237 234 234 235
336 335 334 334 330 316 294 286 279 273 268 263 255 251 246 243 242 241 239 238 235 235
334 330 323 323 328 329 321 300 286 279 274 268 260 255 250 245 243 243 242 242 239 236
333 329 326 320 315 318 322 319 300 283 277 273 269 261 256 252 246 242 242 243 242 238
332 330 326 323 319 314 309 311 311 297 283 275 272 270 263 257 251 246 245 245 244 242
327 325 326 325 321 315 309 301 301 304 296 282 275 271 266 260 253 246 245 244 243 241
319 319 319 321 320 316 313 304 295 297 299 291 280 271 266 260 249 250 244 241 238 240
311 311 313 314 315 314 312 306 297 289 288 293 285 275 265 250 239 246 242 241 238 239
Wind_Speed_850mb
58 61 71 83 86 84 85 84 90 100 104 102 100 99 95 92 88 86 84 80 75 69
48 57 62 66 74 82 82 82 81 84 96 100 101 100 99 99 97 93 89 85 80 77
41 46 55 62 67 72 77 82 82 80 83 93 99 101 103 104 102 99 96 91 88 86
38 41 45 55 61 68 73 80 83 83 87 89 94 101 106 110 108 107 104 98 95 93
47 44 44 48 52 59 68 74 84 87 91 95 96 99 104 113 115 114 113 106 101 100
53 55 52 49 50 52 55 66 75 86 91 98 101 102 105 111 120 120 118 114 107 106
61 61 64 62 57 58 56 57 68 82 89 95 100 104 106 108 118 124 126 119 112 112
61 62 62 65 66 60 60 61 61 70 83 97 99 102 109 110 114 124 128 124 120 118
64 63 65 68 69 67 67 64 62 70 77 90 102 101 105 108 109 117 121 130 127 120
74 69 66 66 67 67 67 70 67 69 71 85 94 96 102 106 111 114 115 123 129 124
83 84 78 75 74 68 67 67 71 64 66 72 83 84 91 98 105 107 111 117 123 124
82 87 93 90 86 80 73 66 66 72 66 66 73 78 80 85 106 100 106 116 121 124
89 89 93 95 97 91 82 77 68 68 75 68 66 69 75 79 86 101 107 116 116 124
95 100 100 100 101 101 90 83 80 73 67 77 66 64 65 74 87 99 109 113 112 115
Wind_Direction_850mb
284 276 270 268 263 257 251 245 240 237 235 235 235 233 230 231 232 232 232 232 232 234
305 292 281 274 269 266 261 253 248 243 238 238 237 235 232 231 230 231 232 233 234 236
309 300 292 283 277 268 264 258 253 249 245 241 239 237 235 233 232 231 230 231 233 235
315 302 293 289 287 280 270 263 258 253 248 244 240 237 237 237 235 233 231 230 232 234
333 314 302 296 290 282 277 271 263 257 252 248 243 240 237 237 237 234 232 231 231 232
341 336 324 303 293 288 285 278 269 261 254 252 248 244 240 238 238 237 235 234 232 233
342 339 337 329 311 296 287 279 276 269 263 258 253 249 246 242 240 239 237 234 234 235
336 335 334 334 330 316 294 286 279 273 268 263 255 251 246 243 242 241 239 238 235 235
334 330 323 323 328 329 321 300 286 279 274 268 260 255 250 245 243 243 242 242 239 236
333 329 326 320 315 318 322 319 300 283 277 273 269 261 256 252 246 242 242 243 242 238
332 330 326 323 319 314 309 311 311 297 283 275 272 270 263 257 251 246 245 245 244 242
327 325 326 325 321 315 309 301 301 304 296 282 275 271 266 260 253 246 245 244 243 241
319 319 319 321 320 316 313 304 295 297 299 291 280 271 266 260 249 250 244 241 238 240
311 311 313 314 315 314 312 306 297 289 288 293 285 275 265 250 239 246 242 241 238 239